• în Republica Moldova
  • Lista ţărilor
  • Pe 7 zile
  • Temperatura apei
  • Hartă satelitară
  • Meteo pe hartă
  • Widget-uri
  • user-avatar
    Intrare

    Meteo pe oră la Chişinău

    Astăzi, 19 Octombrie, Joi

    Timp Temperatura Precipitaţii Vânt Presiune Umiditate
    00:00 +16°C° 0 mm 3 m/s 755 mmHg 64%
    01:00 +16°C° 0 mm 3 m/s 755 mmHg 65%
    02:00 +16°C° 0 mm 2 m/s 754 mmHg 67%
    03:00 +15°C° 0 mm 2 m/s 754 mmHg 68%
    04:00 +15°C° 0 mm 2 m/s 754 mmHg 70%
    05:00 +15°C° 0 mm 2 m/s 754 mmHg 71%
    06:00 +15°C° 0 mm 2 m/s 754 mmHg 69%
    07:00 +16°C° 0 mm 2 m/s 754 mmHg 68%
    08:00 +17°C° 0 mm 3 m/s 754 mmHg 64%
    09:00 +19°C° 0 mm 3 m/s 754 mmHg 57%
    10:00 +21°C° 0 mm 3 m/s 754 mmHg 50%
    11:00 +22°C° 0 mm 4 m/s 754 mmHg 43%
    12:00 +23°C° 0 mm 4 m/s 754 mmHg 40%
    13:00 +25°C° 0 mm 4 m/s 753 mmHg 37%
    14:00 +26°C° 0 mm 4 m/s 753 mmHg 34%
    15:00 +25°C° 0 mm 4 m/s 753 mmHg 37%
    16:00 +24°C° 0 mm 3 m/s 753 mmHg 40%
    17:00 +22°C° 0 mm 3 m/s 752 mmHg 43%
    18:00 +21°C° 0 mm 2 m/s 753 mmHg 45%
    19:00 +20°C° 0 mm 2 m/s 753 mmHg 47%
    20:00 +19°C° 0 mm 2 m/s 753 mmHg 49%
    21:00 +18°C° 0 mm 2 m/s 753 mmHg 51%
    22:00 +17°C° 0 mm 2 m/s 753 mmHg 53%
    23:00 +17°C° 0 mm 2 m/s 753 mmHg 54%

    Mâine, 20 Octombrie, Vineri

    Timp Temperatura Precipitaţii Vânt Presiune Umiditate
    00:00 +16°C° 0 mm 1 m/s 753 mmHg 56%
    01:00 +16°C° 0 mm 1 m/s 753 mmHg 58%
    02:00 +16°C° 0 mm 1 m/s 753 mmHg 60%
    03:00 +15°C° 0 mm 1 m/s 753 mmHg 61%
    04:00 +15°C° 0 mm 1 m/s 753 mmHg 62%
    05:00 +15°C° 0 mm 1 m/s 753 mmHg 63%
    06:00 +15°C° 0 mm 1 m/s 753 mmHg 62%
    07:00 +16°C° 0 mm 1 m/s 753 mmHg 60%
    08:00 +16°C° 0 mm 1 m/s 754 mmHg 59%
    09:00 +19°C° 0 mm 1 m/s 754 mmHg 54%
    10:00 +21°C° 0 mm 1 m/s 754 mmHg 49%
    11:00 +21°C° 0 mm 2 m/s 754 mmHg 44%
    12:00 +23°C° 0 mm 2 m/s 754 mmHg 42%
    13:00 +24°C° 0 mm 2 m/s 754 mmHg 39%
    14:00 +25°C° 0 mm 2 m/s 754 mmHg 37%
    15:00 +24°C° 0 mm 2 m/s 754 mmHg 40%
    16:00 +23°C° 0 mm 2 m/s 753 mmHg 43%
    17:00 +22°C° 0 mm 1 m/s 753 mmHg 47%
    18:00 +20°C° 0 mm 2 m/s 754 mmHg 50%
    19:00 +19°C° 0 mm 2 m/s 754 mmHg 53%
    20:00 +18°C° 0 mm 2 m/s 754 mmHg 56%
    21:00 +17°C° 0 mm 2 m/s 754 mmHg 61%
    22:00 +17°C° 0 mm 2 m/s 754 mmHg 65%
    23:00 +16°C° 0 mm 2 m/s 755 mmHg 69%

    Poimâine, 21 Octombrie, Sâmbătă

    Timp Temperatura Precipitaţii Vânt Presiune Umiditate
    00:00 +15°C° 0 mm 2 m/s 755 mmHg 72%
    01:00 +15°C° 0 mm 2 m/s 755 mmHg 76%
    02:00 +14°C° 0 mm 1 m/s 755 mmHg 79%
    03:00 +14°C° 0 mm 1 m/s 755 mmHg 81%
    04:00 +14°C° 0 mm 1 m/s 754 mmHg 84%
    05:00 +13°C° 0 mm 1 m/s 754 mmHg 86%
    06:00 +13°C° 0 mm 1 m/s 754 mmHg 84%
    07:00 +14°C° 0 mm 2 m/s 755 mmHg 82%
    08:00 +14°C° 0 mm 2 m/s 755 mmHg 80%
    09:00 +16°C° 0 mm 2 m/s 755 mmHg 73%
    10:00 +17°C° 0 mm 2 m/s 755 mmHg 66%
    11:00 +19°C° 0 mm 2 m/s 755 mmHg 59%
    12:00 +19°C° 0 mm 2 m/s 755 mmHg 56%
    13:00 +21°C° 0 mm 1 m/s 754 mmHg 54%
    14:00 +22°C° 0 mm 1 m/s 754 mmHg 51%
    15:00 +21°C° 0 mm 1 m/s 754 mmHg 54%
    16:00 +20°C° 0 mm 1 m/s 754 mmHg 57%
    17:00 +19°C° 0 mm 1 m/s 754 mmHg 60%
    18:00 +18°C° 0 mm 1 m/s 754 mmHg 62%
    19:00 +17°C° 0 mm 2 m/s 754 mmHg 64%
    20:00 +16°C° 0 mm 2 m/s 754 mmHg 67%
    21:00 +16°C° 0 mm 2 m/s 754 mmHg 67%
    22:00 +16°C° 0 mm 2 m/s 754 mmHg 67%
    23:00 +15°C° 0 mm 2 m/s 754 mmHg 68%

    22 Octombrie, Duminică

    Timp Temperatura Precipitaţii Vânt Presiune Umiditate
    00:00 +15°C° 0,1 mm 1 m/s 754 mmHg 69%
    01:00 +15°C° 0,1 mm 1 m/s 754 mmHg 71%
    02:00 +14°C° 0,1 mm 1 m/s 754 mmHg 73%
    03:00 +14°C° 0 mm 1 m/s 754 mmHg 74%
    04:00 +13°C° 0 mm 1 m/s 754 mmHg 75%
    05:00 +13°C° 0 mm 2 m/s 754 mmHg 77%
    06:00 +13°C° 0 mm 2 m/s 755 mmHg 74%
    07:00 +13°C° 0 mm 2 m/s 755 mmHg 71%
    08:00 +13°C° 0 mm 2 m/s 755 mmHg 69%
    09:00 +14°C° 0 mm 2 m/s 755 mmHg 64%
    10:00 +15°C° 0 mm 2 m/s 755 mmHg 60%
    11:00 +16°C° 0 mm 3 m/s 755 mmHg 55%
    12:00 +17°C° 0 mm 3 m/s 755 mmHg 53%
    13:00 +18°C° 0 mm 2 m/s 755 mmHg 51%
    14:00 +18°C° 0 mm 2 m/s 754 mmHg 50%
    15:00 +17°C° 0 mm 2 m/s 754 mmHg 52%
    16:00 +17°C° 0 mm 3 m/s 754 mmHg 54%
    17:00 +16°C° 0 mm 3 m/s 754 mmHg 56%
    18:00 +14°C° 0 mm 3 m/s 754 mmHg 59%
    19:00 +13°C° 0 mm 3 m/s 754 mmHg 61%
    20:00 +13°C° 0 mm 3 m/s 755 mmHg 63%
    21:00 +12°C° 0 mm 3 m/s 755 mmHg 64%
    22:00 +12°C° 0 mm 3 m/s 755 mmHg 65%
    23:00 +12°C° 0 mm 3 m/s 755 mmHg 65%

    23 Octombrie, Luni

    Timp Temperatura Precipitaţii Vânt Presiune Umiditate
    00:00 +11°C° 0 mm 3 m/s 754 mmHg 65%
    01:00 +11°C° 0 mm 3 m/s 754 mmHg 64%
    02:00 +11°C° 0 mm 3 m/s 754 mmHg 63%
    03:00 +11°C° 0 mm 3 m/s 754 mmHg 63%
    04:00 +11°C° 0 mm 3 m/s 754 mmHg 64%
    05:00 +11°C° 0 mm 3 m/s 753 mmHg 64%
    06:00 +11°C° 0 mm 4 m/s 754 mmHg 66%
    07:00 +12°C° 0 mm 4 m/s 754 mmHg 68%
    08:00 +12°C° 0 mm 5 m/s 754 mmHg 70%
    09:00 +13°C° 0,1 mm 5 m/s 754 mmHg 67%
    10:00 +14°C° 0,1 mm 5 m/s 754 mmHg 64%
    11:00 +14°C° 0,1 mm 6 m/s 754 mmHg 61%
    12:00 +15°C° 0 mm 6 m/s 753 mmHg 57%
    13:00 +15°C° 0 mm 6 m/s 753 mmHg 53%
    14:00 +15°C° 0 mm 6 m/s 753 mmHg 50%
    15:00 +15°C° 0 mm 5 m/s 753 mmHg 52%
    16:00 +14°C° 0 mm 5 m/s 753 mmHg 54%
    17:00 +14°C° 0 mm 4 m/s 754 mmHg 56%
    18:00 +13°C° 0 mm 4 m/s 754 mmHg 58%
    19:00 +12°C° 0 mm 4 m/s 754 mmHg 59%
    20:00 +12°C° 0 mm 4 m/s 755 mmHg 61%
    21:00 +11°C° 0 mm 4 m/s 755 mmHg 61%
    22:00 +11°C° 0 mm 4 m/s 755 mmHg 61%
    23:00 +10°C° 0 mm 3 m/s 756 mmHg 61%

    24 Octombrie, Marţi

    Timp Temperatura Precipitaţii Vânt Presiune Umiditate
    00:00 +10°C° 0 mm 3 m/s 756 mmHg 60%
    01:00 +10°C° 0 mm 3 m/s 756 mmHg 60%
    02:00 +9°C° 0 mm 3 m/s 756 mmHg 59%
    03:00 +8°C° 0 mm 4 m/s 756 mmHg 57%
    04:00 +7°C° 0 mm 4 m/s 757 mmHg 55%
    05:00 +7°C° 0 mm 4 m/s 757 mmHg 54%
    06:00 +7°C° 0 mm 4 m/s 757 mmHg 51%
    07:00 +7°C° 0 mm 4 m/s 758 mmHg 48%
    08:00 +7°C° 0 mm 4 m/s 758 mmHg 46%
    09:00 +8°C° 0 mm 4 m/s 759 mmHg 42%
    10:00 +10°C° 0 mm 5 m/s 759 mmHg 38%
    11:00 +12°C° 0 mm 5 m/s 759 mmHg 34%
    12:00 +12°C° 0 mm 5 m/s 759 mmHg 33%
    13:00 +13°C° 0 mm 5 m/s 759 mmHg 31%
    14:00 +13°C° 0 mm 5 m/s 759 mmHg 29%
    15:00 +13°C° 0 mm 5 m/s 760 mmHg 31%
    16:00 +12°C° 0 mm 4 m/s 760 mmHg 32%
    17:00 +11°C° 0 mm 3 m/s 760 mmHg 34%
    18:00 +10°C° 0 mm 4 m/s 761 mmHg 36%
    19:00 +8°C° 0 mm 4 m/s 762 mmHg 37%
    20:00 +8°C° 0 mm 4 m/s 762 mmHg 39%
    21:00 +7°C° 0 mm 4 m/s 763 mmHg 40%
    22:00 +7°C° 0 mm 4 m/s 763 mmHg 41%
    23:00 +6°C° 0 mm 4 m/s 763 mmHg 42%
    Arată mai mult